This is the latest recevied weather packets stored in our database for station/object K5GHS-1. If no packets are shown the sender has not sent any weather packets the latest 10 day(s).
| Time | Temp. | Humidity | Pressure | Rain* | Wind** | Luminosity | Snow |
|---|---|---|---|---|---|---|---|
| 1778011705 | 31.11° C | 60% | 1002.8 hPa | 0 mm | - | 612 W/m² | - |
| 1778011401 | 31.11° C | 59% | 1002.7 hPa | 0 mm | - | 611 W/m² | - |
| 1778011096 | 31.67° C | 60% | 1002.8 hPa | 0 mm | - | 644 W/m² | - |
| 1778010794 | 31.11° C | 60% | 1003 hPa | 0 mm | - | 673 W/m² | - |
| 1778010491 | 31.11° C | 60% | 1002.8 hPa | 0 mm | - | 548 W/m² | - |
| 1778010188 | 31.11° C | 59% | 1002.8 hPa | 0 mm | - | 475 W/m² | - |
| 1778009883 | 31.11° C | 61% | 1003.1 hPa | 0 mm | - | 454 W/m² | - |
| 1778009581 | 31.11° C | 62% | 1003 hPa | 0 mm | - | 566 W/m² | - |
| 1778009279 | 30.56° C | 61% | 1002.7 hPa | 0 mm | - | 670 W/m² | - |
| 1778008977 | 30.56° C | 62% | 1002.7 hPa | 0 mm | - | 639 W/m² | - |
| 1778008674 | 30° C | 64% | 1002.8 hPa | 0 mm | - | 689 W/m² | - |
| 1778008373 | 30° C | 63% | 1003.1 hPa | 0 mm | - | 636 W/m² | - |
| 1778008069 | 30° C | 64% | 1002.7 hPa | 0 mm | - | 474 W/m² | - |
| 1778007764 | 30° C | 64% | 1002.7 hPa | 0 mm | - | 523 W/m² | - |
| 1778007461 | 29.44° C | 66% | 1003.1 hPa | 0 mm | - | 457 W/m² | - |
| 1778007157 | 29.44° C | 66% | 1003 hPa | 0 mm | - | 424 W/m² | - |
| 1778006853 | 28.89° C | 66% | 1003.1 hPa | 0 mm | - | 357 W/m² | - |
| 1778006551 | 28.89° C | 66% | 1003 hPa | 0 mm | - | 355 W/m² | - |
| 1778006247 | 28.89° C | 67% | 1003.2 hPa | 0 mm | - | 329 W/m² | - |
| 1778005945 | 28.89° C | 68% | 1003.1 hPa | 0 mm | - | 452 W/m² | - |
| 1778005641 | 28.89° C | 68% | 1003.2 hPa | 0 mm | - | 334 W/m² | - |
| 1778005338 | 28.89° C | 68% | 1003.1 hPa | 0 mm | - | 300 W/m² | - |
| 1778005034 | 28.89° C | 68% | 1003.1 hPa | 0 mm | - | 303 W/m² | - |
| 1778004732 | 28.89° C | 67% | 1003.3 hPa | 0 mm | - | 227 W/m² | - |
| 1778004428 | 29.44° C | 66% | 1003.1 hPa | 0 mm | - | 304 W/m² | - |
* Rain latest hour (hover to see other rain measurements)
** Current wind speed in m/s (hover to see current wind gust speed)